Year,Month,Day,Hour,Minute,Value (Times are PST for temperature in C)
2021,06,27,00,00,26.20
2021,06,27,00,01,26.20
2021,06,27,00,02,26.20
2021,06,27,00,03,26.10
2021,06,27,00,04,26.10
2021,06,27,00,05,26.00
2021,06,27,00,06,25.90
2021,06,27,00,07,25.80
2021,06,27,00,08,25.60
2021,06,27,00,09,25.50
2021,06,27,00,10,25.30
2021,06,27,00,11,25.20
2021,06,27,00,12,25.20
2021,06,27,00,13,25.10
2021,06,27,00,14,25.10
2021,06,27,00,15,25.10
2021,06,27,00,16,25.10
2021,06,27,00,17,25.00
2021,06,27,00,18,25.00
2021,06,27,00,19,24.90
2021,06,27,00,20,24.90
2021,06,27,00,21,24.90
2021,06,27,00,22,24.90
2021,06,27,00,23,24.80
2021,06,27,00,24,24.80
2021,06,27,00,25,24.70
2021,06,27,00,26,24.70
2021,06,27,00,27,24.60
2021,06,27,00,28,24.60
2021,06,27,00,29,24.50
2021,06,27,00,30,24.40
2021,06,27,00,31,24.40
2021,06,27,00,32,24.30
2021,06,27,00,33,24.30
2021,06,27,00,34,24.30
2021,06,27,00,35,24.30
2021,06,27,00,36,24.20
2021,06,27,00,37,24.10
2021,06,27,00,38,24.10
2021,06,27,00,39,24.10
2021,06,27,00,40,24.00
2021,06,27,00,41,24.00
2021,06,27,00,42,23.90
2021,06,27,00,43,23.90
2021,06,27,00,44,23.90
2021,06,27,00,45,23.90
2021,06,27,00,46,23.90
2021,06,27,00,47,23.90
2021,06,27,00,48,23.80
2021,06,27,00,49,23.80
2021,06,27,00,50,23.80
2021,06,27,00,51,23.80
2021,06,27,00,52,23.80
2021,06,27,00,53,23.80
2021,06,27,00,54,23.80
2021,06,27,00,55,23.80
2021,06,27,00,56,23.90
2021,06,27,00,57,23.90
2021,06,27,00,58,23.90
2021,06,27,00,59,23.90
2021,06,27,01,00,23.90
2021,06,27,01,01,23.90
2021,06,27,01,02,23.90
2021,06,27,01,03,23.90
2021,06,27,01,04,23.90
2021,06,27,01,05,23.80
2021,06,27,01,06,23.80
2021,06,27,01,07,23.80
2021,06,27,01,08,23.70
2021,06,27,01,09,23.70
2021,06,27,01,10,23.70
2021,06,27,01,11,23.60
2021,06,27,01,12,23.50
2021,06,27,01,13,23.50
2021,06,27,01,14,23.40
2021,06,27,01,15,23.30
2021,06,27,01,16,23.30
2021,06,27,01,17,23.40
2021,06,27,01,18,23.40
2021,06,27,01,19,23.40
2021,06,27,01,20,23.40
2021,06,27,01,21,23.40
2021,06,27,01,22,23.40
2021,06,27,01,23,23.40
2021,06,27,01,24,23.40
2021,06,27,01,25,23.40
2021,06,27,01,26,23.30
2021,06,27,01,27,23.30
2021,06,27,01,28,23.30
2021,06,27,01,29,23.40
2021,06,27,01,30,23.40
2021,06,27,01,31,23.40
2021,06,27,01,32,23.50
2021,06,27,01,33,23.50
2021,06,27,01,34,23.50
2021,06,27,01,35,23.50
2021,06,27,01,36,23.50
2021,06,27,01,37,23.50
2021,06,27,01,38,23.50
2021,06,27,01,39,23.40
2021,06,27,01,40,23.40
2021,06,27,01,41,23.40
2021,06,27,01,42,23.40
2021,06,27,01,43,23.30
2021,06,27,01,44,23.30
2021,06,27,01,45,23.30
2021,06,27,01,46,23.30
2021,06,27,01,47,23.20
2021,06,27,01,48,23.20
2021,06,27,01,49,23.20
2021,06,27,01,50,23.20
2021,06,27,01,51,23.20
2021,06,27,01,52,23.20
2021,06,27,01,53,23.10
2021,06,27,01,54,23.10
2021,06,27,01,55,23.00
2021,06,27,01,56,23.00
2021,06,27,01,57,22.90
2021,06,27,01,58,22.90
2021,06,27,01,59,22.90
2021,06,27,02,00,22.90
2021,06,27,02,01,22.80
2021,06,27,02,02,22.80
2021,06,27,02,03,22.80
2021,06,27,02,04,22.80
2021,06,27,02,05,22.80
2021,06,27,02,06,22.70
2021,06,27,02,07,22.70
2021,06,27,02,08,22.70
2021,06,27,02,09,22.80
2021,06,27,02,10,22.80
2021,06,27,02,11,22.80
2021,06,27,02,12,22.80
2021,06,27,02,13,22.90
2021,06,27,02,14,22.90
2021,06,27,02,15,22.90
2021,06,27,02,16,22.90
2021,06,27,02,17,22.90
2021,06,27,02,18,23.00
2021,06,27,02,19,23.10
2021,06,27,02,20,23.10
2021,06,27,02,21,23.10
2021,06,27,02,22,23.20
2021,06,27,02,23,23.20
2021,06,27,02,24,23.20
2021,06,27,02,25,23.20
2021,06,27,02,26,23.20
2021,06,27,02,27,23.20
2021,06,27,02,28,23.20
2021,06,27,02,29,23.20
2021,06,27,02,30,23.20
2021,06,27,02,31,23.20
2021,06,27,02,32,23.20
2021,06,27,02,33,23.20
2021,06,27,02,34,23.20
2021,06,27,02,35,23.20
2021,06,27,02,36,23.20
2021,06,27,02,37,23.20
2021,06,27,02,38,23.30
2021,06,27,02,39,23.30
2021,06,27,02,40,23.30
2021,06,27,02,41,23.30
2021,06,27,02,42,23.30
2021,06,27,02,43,23.30
2021,06,27,02,44,23.30
2021,06,27,02,45,23.30
2021,06,27,02,46,23.30
2021,06,27,02,47,23.30
2021,06,27,02,48,23.30
2021,06,27,02,49,23.30
2021,06,27,02,50,23.30
2021,06,27,02,51,23.30
2021,06,27,02,52,23.30
2021,06,27,02,53,23.30
2021,06,27,02,54,23.20
2021,06,27,02,55,23.20
2021,06,27,02,56,23.10
2021,06,27,02,57,23.10
2021,06,27,02,58,23.10
2021,06,27,02,59,23.10
2021,06,27,03,00,23.10
2021,06,27,03,01,23.10
2021,06,27,03,02,23.10
2021,06,27,03,03,23.20
2021,06,27,03,04,23.20
2021,06,27,03,05,23.20
2021,06,27,03,06,23.20
2021,06,27,03,07,23.20
2021,06,27,03,08,23.20
2021,06,27,03,09,23.20
2021,06,27,03,10,23.20
2021,06,27,03,11,23.20
2021,06,27,03,12,23.30
2021,06,27,03,13,23.30
2021,06,27,03,14,23.30
2021,06,27,03,15,23.30
2021,06,27,03,16,23.30
2021,06,27,03,17,23.30
2021,06,27,03,18,23.30
2021,06,27,03,19,23.30
2021,06,27,03,20,23.30
2021,06,27,03,21,23.30
2021,06,27,03,22,23.30
2021,06,27,03,23,23.30
2021,06,27,03,24,23.30
2021,06,27,03,25,23.30
2021,06,27,03,26,23.30
2021,06,27,03,27,23.30
2021,06,27,03,28,23.30
2021,06,27,03,29,23.30
2021,06,27,03,30,23.30
2021,06,27,03,31,23.30
2021,06,27,03,32,23.30
2021,06,27,03,33,23.30
2021,06,27,03,34,23.30
2021,06,27,03,35,23.30
2021,06,27,03,36,23.30
2021,06,27,03,37,23.20
2021,06,27,03,38,23.20
2021,06,27,03,39,23.20
2021,06,27,03,40,23.20
2021,06,27,03,41,23.20
2021,06,27,03,42,23.20
2021,06,27,03,43,23.20
2021,06,27,03,44,23.20
2021,06,27,03,45,23.20
2021,06,27,03,46,23.10
2021,06,27,03,47,23.10
2021,06,27,03,48,23.10
2021,06,27,03,49,23.10
2021,06,27,03,50,23.10
2021,06,27,03,51,23.00
2021,06,27,03,52,23.00
2021,06,27,03,53,22.90
2021,06,27,03,54,22.90
2021,06,27,03,55,22.90
2021,06,27,03,56,22.80
2021,06,27,03,57,22.80
2021,06,27,03,58,22.80
2021,06,27,03,59,22.70
2021,06,27,04,00,22.70
2021,06,27,04,01,22.70
2021,06,27,04,02,22.70
2021,06,27,04,03,22.70
2021,06,27,04,04,22.70
2021,06,27,04,05,22.70
2021,06,27,04,06,22.60
2021,06,27,04,07,22.60
2021,06,27,04,08,22.60
2021,06,27,04,09,22.60
2021,06,27,04,10,22.60
2021,06,27,04,11,22.60
2021,06,27,04,12,22.60
2021,06,27,04,13,22.60
2021,06,27,04,14,22.60
2021,06,27,04,15,22.60
2021,06,27,04,16,22.50
2021,06,27,04,17,22.50
2021,06,27,04,18,22.50
2021,06,27,04,19,22.50
2021,06,27,04,20,22.40
2021,06,27,04,21,22.40
2021,06,27,04,22,22.40
2021,06,27,04,23,22.40
2021,06,27,04,24,22.40
2021,06,27,04,25,22.40
2021,06,27,04,26,22.40
2021,06,27,04,27,22.40
2021,06,27,04,28,22.40
2021,06,27,04,29,22.40
2021,06,27,04,30,22.40
2021,06,27,04,31,22.40
2021,06,27,04,32,22.40
2021,06,27,04,33,22.40
2021,06,27,04,34,22.40
2021,06,27,04,35,22.40
2021,06,27,04,36,22.40
2021,06,27,04,37,22.40
2021,06,27,04,38,22.40
2021,06,27,04,39,22.40
2021,06,27,04,40,22.40
2021,06,27,04,41,22.40
2021,06,27,04,42,22.40
2021,06,27,04,43,22.40
2021,06,27,04,44,22.40
2021,06,27,04,45,22.30
2021,06,27,04,46,22.30
2021,06,27,04,47,22.30
2021,06,27,04,48,22.30
2021,06,27,04,49,22.30
2021,06,27,04,50,22.30
2021,06,27,04,51,22.30
2021,06,27,04,52,22.20
2021,06,27,04,53,22.20
2021,06,27,04,54,22.20
2021,06,27,04,55,22.20
2021,06,27,04,56,22.20
2021,06,27,04,57,22.20
2021,06,27,04,58,22.20
2021,06,27,04,59,22.20
2021,06,27,05,00,22.20
2021,06,27,05,01,22.10
2021,06,27,05,02,22.10
2021,06,27,05,03,22.10
2021,06,27,05,04,22.00
2021,06,27,05,05,21.90
2021,06,27,05,06,21.90
2021,06,27,05,07,21.80
2021,06,27,05,08,21.80
2021,06,27,05,09,21.80
2021,06,27,05,10,21.80
2021,06,27,05,11,21.80
2021,06,27,05,12,21.80
2021,06,27,05,13,21.80
2021,06,27,05,14,21.80
2021,06,27,05,15,21.80
2021,06,27,05,16,21.80
2021,06,27,05,17,21.80
2021,06,27,05,18,21.80
2021,06,27,05,19,21.80
2021,06,27,05,20,21.80
2021,06,27,05,21,21.80
2021,06,27,05,22,21.70
2021,06,27,05,23,21.80
2021,06,27,05,24,21.80
2021,06,27,05,25,21.80
2021,06,27,05,26,21.80
2021,06,27,05,27,21.80
2021,06,27,05,28,21.80
2021,06,27,05,29,21.80
2021,06,27,05,30,21.80
2021,06,27,05,31,21.80
2021,06,27,05,32,21.80
2021,06,27,05,33,21.80
2021,06,27,05,34,21.90
2021,06,27,05,35,21.90
2021,06,27,05,36,21.90
2021,06,27,05,37,21.90
2021,06,27,05,38,21.90
2021,06,27,05,39,21.90
2021,06,27,05,40,21.90
2021,06,27,05,41,22.00
2021,06,27,05,42,22.00
2021,06,27,05,43,22.00
2021,06,27,05,44,22.10
2021,06,27,05,45,22.10
2021,06,27,05,46,22.10
2021,06,27,05,47,22.10
2021,06,27,05,48,22.10
2021,06,27,05,49,22.10
2021,06,27,05,50,22.10
2021,06,27,05,51,22.20
2021,06,27,05,52,22.20
2021,06,27,05,53,22.20
2021,06,27,05,54,22.20
2021,06,27,05,55,22.20
2021,06,27,05,56,22.10
2021,06,27,05,57,22.10
2021,06,27,05,58,22.10
2021,06,27,05,59,22.10
2021,06,27,06,00,22.10
2021,06,27,06,01,22.10
2021,06,27,06,02,22.10
2021,06,27,06,03,22.10
2021,06,27,06,04,22.10
2021,06,27,06,05,22.10
2021,06,27,06,06,22.10
2021,06,27,06,07,22.10
2021,06,27,06,08,22.10
2021,06,27,06,09,22.10
2021,06,27,06,10,22.00
2021,06,27,06,11,22.00
2021,06,27,06,12,22.00
2021,06,27,06,13,22.10
2021,06,27,06,14,22.10
2021,06,27,06,15,22.00
2021,06,27,06,16,22.10
2021,06,27,06,17,22.10
2021,06,27,06,18,22.10
2021,06,27,06,19,22.00
2021,06,27,06,20,22.00
2021,06,27,06,21,22.00
2021,06,27,06,22,22.00
2021,06,27,06,23,22.00
2021,06,27,06,24,22.00
2021,06,27,06,25,22.00
2021,06,27,06,26,22.00
2021,06,27,06,27,21.90
2021,06,27,06,28,21.90
2021,06,27,06,29,21.90
2021,06,27,06,30,21.90
2021,06,27,06,31,21.90
2021,06,27,06,32,21.90
2021,06,27,06,33,21.90
2021,06,27,06,34,21.90
2021,06,27,06,35,21.90
2021,06,27,06,36,21.90
2021,06,27,06,37,21.90
2021,06,27,06,38,21.90
2021,06,27,06,39,22.00
2021,06,27,06,40,22.00
2021,06,27,06,41,22.00
2021,06,27,06,42,22.00
2021,06,27,06,43,22.00
2021,06,27,06,44,22.10
2021,06,27,06,45,22.20
2021,06,27,06,46,22.30
2021,06,27,06,47,22.30
2021,06,27,06,48,22.40
2021,06,27,06,49,22.40
2021,06,27,06,50,22.50
2021,06,27,06,51,22.50
2021,06,27,06,52,22.60
2021,06,27,06,53,22.70
2021,06,27,06,54,22.70
2021,06,27,06,55,22.80
2021,06,27,06,56,22.80
2021,06,27,06,57,22.80
2021,06,27,06,58,22.80
2021,06,27,06,59,22.80
2021,06,27,07,00,22.80
2021,06,27,07,01,22.90
2021,06,27,07,02,23.00
2021,06,27,07,03,23.00
2021,06,27,07,04,23.10
2021,06,27,07,05,23.10
2021,06,27,07,06,23.10
2021,06,27,07,07,23.20
2021,06,27,07,08,23.20
2021,06,27,07,09,23.30
2021,06,27,07,10,23.40
2021,06,27,07,11,23.50
2021,06,27,07,12,23.50
2021,06,27,07,13,23.60
2021,06,27,07,14,23.70
2021,06,27,07,15,23.80
2021,06,27,07,16,23.80
2021,06,27,07,17,23.90
2021,06,27,07,18,24.00
2021,06,27,07,19,24.10
2021,06,27,07,20,24.10
2021,06,27,07,21,24.20
2021,06,27,07,22,24.20
2021,06,27,07,23,24.30
2021,06,27,07,24,24.30
2021,06,27,07,25,24.40
2021,06,27,07,26,24.40
2021,06,27,07,27,24.50
2021,06,27,07,28,24.50
2021,06,27,07,29,24.60
2021,06,27,07,30,24.60
2021,06,27,07,31,24.60
2021,06,27,07,32,24.60
2021,06,27,07,33,24.60
2021,06,27,07,34,24.70
2021,06,27,07,35,24.70
2021,06,27,07,36,24.70
2021,06,27,07,37,24.70
2021,06,27,07,38,24.70
2021,06,27,07,39,24.70
2021,06,27,07,40,24.70
2021,06,27,07,41,24.60
2021,06,27,07,42,24.60
2021,06,27,07,43,24.60
2021,06,27,07,44,24.50
2021,06,27,07,45,24.50
2021,06,27,07,46,24.50
2021,06,27,07,47,24.40
2021,06,27,07,48,24.50
2021,06,27,07,49,24.60
2021,06,27,07,50,24.60
2021,06,27,07,51,24.60
2021,06,27,07,52,24.60
2021,06,27,07,53,24.70
2021,06,27,07,54,24.70
2021,06,27,07,55,24.70
2021,06,27,07,56,24.80
2021,06,27,07,57,24.80
2021,06,27,07,58,24.80
2021,06,27,07,59,24.90
2021,06,27,08,00,25.00
2021,06,27,08,01,25.00
2021,06,27,08,02,25.10
2021,06,27,08,03,25.20
2021,06,27,08,04,25.30
2021,06,27,08,05,25.40
2021,06,27,08,06,25.40
2021,06,27,08,07,25.50
2021,06,27,08,08,25.50
2021,06,27,08,09,25.60
2021,06,27,08,10,25.70
2021,06,27,08,11,25.70
2021,06,27,08,12,25.90
2021,06,27,08,13,26.10
2021,06,27,08,14,26.30
2021,06,27,08,15,26.50
2021,06,27,08,16,26.70
2021,06,27,08,17,26.90
2021,06,27,08,18,27.10
2021,06,27,08,19,27.50
2021,06,27,08,20,27.80
2021,06,27,08,21,28.00
2021,06,27,08,22,28.20
2021,06,27,08,23,28.30
2021,06,27,08,24,28.40
2021,06,27,08,25,28.50
2021,06,27,08,26,28.60
2021,06,27,08,27,28.50
2021,06,27,08,28,28.50
2021,06,27,08,29,28.40
2021,06,27,08,30,28.40
2021,06,27,08,31,28.30
2021,06,27,08,32,28.30
2021,06,27,08,33,28.30
2021,06,27,08,34,28.30
2021,06,27,08,35,28.20
2021,06,27,08,36,28.30
2021,06,27,08,37,28.30
2021,06,27,08,38,28.30
2021,06,27,08,39,28.40
2021,06,27,08,40,28.40
2021,06,27,08,41,28.50
2021,06,27,08,42,28.60
2021,06,27,08,43,28.60
2021,06,27,08,44,28.80
2021,06,27,08,45,28.90
2021,06,27,08,46,29.10
2021,06,27,08,47,29.30
2021,06,27,08,48,29.40
2021,06,27,08,49,29.50
2021,06,27,08,50,29.60
2021,06,27,08,51,29.70
2021,06,27,08,52,29.80
2021,06,27,08,53,29.90
2021,06,27,08,54,29.90
2021,06,27,08,55,30.00
2021,06,27,08,56,30.10
2021,06,27,08,57,30.20
2021,06,27,08,58,30.30
2021,06,27,08,59,30.40
2021,06,27,09,00,30.40
2021,06,27,09,01,30.50
2021,06,27,09,02,30.60
2021,06,27,09,03,30.60
2021,06,27,09,04,30.60
2021,06,27,09,05,30.60
2021,06,27,09,06,30.60
2021,06,27,09,07,30.60
2021,06,27,09,08,30.60
2021,06,27,09,09,30.60
2021,06,27,09,10,30.60
2021,06,27,09,11,30.60
2021,06,27,09,12,30.60
2021,06,27,09,13,30.60
2021,06,27,09,14,30.60
2021,06,27,09,15,30.70
2021,06,27,09,16,30.70
2021,06,27,09,17,30.70
2021,06,27,09,18,30.80
2021,06,27,09,19,30.80
2021,06,27,09,20,30.90
2021,06,27,09,21,30.90
2021,06,27,09,22,30.90
2021,06,27,09,23,30.90
2021,06,27,09,24,31.00
2021,06,27,09,25,31.00
2021,06,27,09,26,31.10
2021,06,27,09,27,31.10
2021,06,27,09,28,31.20
2021,06,27,09,29,31.20
2021,06,27,09,30,31.20
2021,06,27,09,31,31.20
2021,06,27,09,32,31.20
2021,06,27,09,33,31.20
2021,06,27,09,34,31.20
2021,06,27,09,35,31.30
2021,06,27,09,36,31.30
2021,06,27,09,37,31.30
2021,06,27,09,38,31.30
2021,06,27,09,39,31.30
2021,06,27,09,40,31.20
2021,06,27,09,41,31.20
2021,06,27,09,42,31.20
2021,06,27,09,43,31.20
2021,06,27,09,44,31.20
2021,06,27,09,45,31.20
2021,06,27,09,46,31.20
2021,06,27,09,47,31.20
2021,06,27,09,48,31.30
2021,06,27,09,49,31.30
2021,06,27,09,50,31.30
2021,06,27,09,51,31.30
2021,06,27,09,52,31.30
2021,06,27,09,53,31.30
2021,06,27,09,54,31.40
2021,06,27,09,55,31.40
2021,06,27,09,56,31.40
2021,06,27,09,57,31.50
2021,06,27,09,58,31.50
2021,06,27,09,59,31.50
2021,06,27,10,00,31.40
2021,06,27,10,01,31.50
2021,06,27,10,02,31.50
2021,06,27,10,03,31.60
2021,06,27,10,04,31.60
2021,06,27,10,05,31.60
2021,06,27,10,06,31.60
2021,06,27,10,07,31.60
2021,06,27,10,08,31.60
2021,06,27,10,09,31.60
2021,06,27,10,10,31.60
2021,06,27,10,11,31.70
2021,06,27,10,12,31.70
2021,06,27,10,13,31.60
2021,06,27,10,14,31.60
2021,06,27,10,15,31.60
2021,06,27,10,16,31.60
2021,06,27,10,17,31.60
2021,06,27,10,18,31.60
2021,06,27,10,19,31.70
2021,06,27,10,20,31.70
2021,06,27,10,21,31.70
2021,06,27,10,22,31.70
2021,06,27,10,23,31.70
2021,06,27,10,24,31.70
2021,06,27,10,25,31.70
2021,06,27,10,26,31.70
2021,06,27,10,27,31.80
2021,06,27,10,28,31.80
2021,06,27,10,29,31.80
2021,06,27,10,30,31.80
2021,06,27,10,31,31.80
2021,06,27,10,32,31.80
2021,06,27,10,33,31.70
2021,06,27,10,34,31.70
2021,06,27,10,35,31.80
2021,06,27,10,36,31.80
2021,06,27,10,37,31.80
2021,06,27,10,38,31.90
2021,06,27,10,39,31.90
2021,06,27,10,40,31.90
2021,06,27,10,41,31.90
2021,06,27,10,42,31.90
2021,06,27,10,43,31.90
2021,06,27,10,44,31.90
2021,06,27,10,45,31.90
2021,06,27,10,46,31.90
2021,06,27,10,47,32.00
2021,06,27,10,48,32.00
2021,06,27,10,49,32.00
2021,06,27,10,50,32.00
2021,06,27,10,51,32.00
2021,06,27,10,52,32.00
2021,06,27,10,53,32.00
2021,06,27,10,54,32.10
2021,06,27,10,55,32.10
2021,06,27,10,56,32.10
2021,06,27,10,57,32.10
2021,06,27,10,58,32.20
2021,06,27,10,59,32.20
2021,06,27,11,00,32.20
2021,06,27,11,01,32.10
2021,06,27,11,02,32.20
2021,06,27,11,03,32.20
2021,06,27,11,04,32.20
2021,06,27,11,05,32.20
2021,06,27,11,06,32.20
2021,06,27,11,07,32.20
2021,06,27,11,08,32.10
2021,06,27,11,09,32.20
2021,06,27,11,10,32.20
2021,06,27,11,11,32.20
2021,06,27,11,12,32.20
2021,06,27,11,13,32.20
2021,06,27,11,14,32.10
2021,06,27,11,15,32.10
2021,06,27,11,16,32.10
2021,06,27,11,17,32.10
2021,06,27,11,18,32.20
2021,06,27,11,19,32.20
2021,06,27,11,20,32.20
2021,06,27,11,21,32.20
2021,06,27,11,22,32.30
2021,06,27,11,23,32.30
2021,06,27,11,24,32.30
2021,06,27,11,25,32.30
2021,06,27,11,26,32.30
2021,06,27,11,27,32.30
2021,06,27,11,28,32.30
2021,06,27,11,29,32.40
2021,06,27,11,30,32.40
2021,06,27,11,31,32.40
2021,06,27,11,32,32.40
2021,06,27,11,33,32.40
2021,06,27,11,34,32.40
2021,06,27,11,35,32.40
2021,06,27,11,36,32.50
2021,06,27,11,37,32.60
2021,06,27,11,38,32.60
2021,06,27,11,39,32.60
2021,06,27,11,40,32.60
2021,06,27,11,41,32.60
2021,06,27,11,42,32.60
2021,06,27,11,43,32.70
2021,06,27,11,44,32.70
2021,06,27,11,45,32.70
2021,06,27,11,46,32.80
2021,06,27,11,47,32.80
2021,06,27,11,48,32.80
2021,06,27,11,49,32.80
2021,06,27,11,50,32.80
2021,06,27,11,51,32.80
2021,06,27,11,52,32.80
2021,06,27,11,53,32.80
2021,06,27,11,54,32.80
2021,06,27,11,55,32.80
2021,06,27,11,56,32.80
2021,06,27,11,57,32.80
2021,06,27,11,58,32.90
2021,06,27,11,59,32.90
2021,06,27,12,00,32.90
2021,06,27,12,01,32.90
2021,06,27,12,02,32.90
2021,06,27,12,03,32.90
2021,06,27,12,04,32.90
2021,06,27,12,05,32.80
2021,06,27,12,06,32.80
2021,06,27,12,07,32.80
2021,06,27,12,08,32.80
2021,06,27,12,09,32.80
2021,06,27,12,10,32.80
2021,06,27,12,11,32.90
2021,06,27,12,12,32.90
2021,06,27,12,13,33.00
2021,06,27,12,14,33.00
2021,06,27,12,15,33.10
2021,06,27,12,16,33.10
2021,06,27,12,17,33.10
2021,06,27,12,18,33.10
2021,06,27,12,19,33.10
2021,06,27,12,20,33.10
2021,06,27,12,21,33.10
2021,06,27,12,22,33.10
2021,06,27,12,23,33.20
2021,06,27,12,24,33.20
2021,06,27,12,25,33.20
2021,06,27,12,26,33.20
2021,06,27,12,27,33.30
2021,06,27,12,28,33.30
2021,06,27,12,29,33.30
2021,06,27,12,30,33.30
2021,06,27,12,31,33.30
2021,06,27,12,32,33.30
2021,06,27,12,33,33.30
2021,06,27,12,34,33.40
2021,06,27,12,35,33.40
2021,06,27,12,36,33.40
2021,06,27,12,37,33.40
2021,06,27,12,38,33.40
2021,06,27,12,39,33.40
2021,06,27,12,40,33.30
2021,06,27,12,41,33.20
2021,06,27,12,42,33.20
2021,06,27,12,43,33.20
2021,06,27,12,44,33.20
2021,06,27,12,45,33.30
2021,06,27,12,46,33.30
2021,06,27,12,47,33.40
2021,06,27,12,48,33.40
2021,06,27,12,49,33.50
2021,06,27,12,50,33.60
2021,06,27,12,51,33.60
2021,06,27,12,52,33.70
2021,06,27,12,53,33.70
2021,06,27,12,54,33.80
2021,06,27,12,55,33.80
2021,06,27,12,56,33.90
2021,06,27,12,57,33.90
2021,06,27,12,58,33.90
2021,06,27,12,59,34.00
2021,06,27,13,00,34.00
2021,06,27,13,01,34.10
2021,06,27,13,02,34.10
2021,06,27,13,03,34.10
2021,06,27,13,04,34.20
2021,06,27,13,05,34.30
2021,06,27,13,06,34.30
2021,06,27,13,07,34.30
2021,06,27,13,08,34.30
2021,06,27,13,09,34.30
2021,06,27,13,10,34.30
2021,06,27,13,11,34.30
2021,06,27,13,12,34.30
2021,06,27,13,13,34.30
2021,06,27,13,14,34.30
2021,06,27,13,15,34.30
2021,06,27,13,16,34.30
2021,06,27,13,17,34.30
2021,06,27,13,18,34.30
2021,06,27,13,19,34.30
2021,06,27,13,20,34.30
2021,06,27,13,21,34.20
2021,06,27,13,22,34.10
2021,06,27,13,23,34.10
2021,06,27,13,24,34.10
2021,06,27,13,25,34.10
2021,06,27,13,26,34.10
2021,06,27,13,27,34.20
2021,06,27,13,28,34.20
2021,06,27,13,29,34.30
2021,06,27,13,30,34.30
2021,06,27,13,31,34.30
2021,06,27,13,32,34.40
2021,06,27,13,33,34.40
2021,06,27,13,34,34.50
2021,06,27,13,35,34.50
2021,06,27,13,36,34.60
2021,06,27,13,37,34.60
2021,06,27,13,38,34.60
2021,06,27,13,39,34.60
2021,06,27,13,40,34.60
2021,06,27,13,41,34.60
2021,06,27,13,42,34.60
2021,06,27,13,43,34.60
2021,06,27,13,44,34.60
2021,06,27,13,45,34.70
2021,06,27,13,46,34.70
2021,06,27,13,47,34.70
2021,06,27,13,48,34.70
2021,06,27,13,49,34.70
2021,06,27,13,50,34.70
2021,06,27,13,51,34.70
2021,06,27,13,52,34.70
2021,06,27,13,53,34.70
2021,06,27,13,54,34.80
2021,06,27,13,55,34.80
2021,06,27,13,56,34.90
2021,06,27,13,57,34.90
2021,06,27,13,58,35.00
2021,06,27,13,59,35.00
2021,06,27,14,00,35.10
2021,06,27,14,01,35.10
2021,06,27,14,02,35.10
2021,06,27,14,03,35.10
2021,06,27,14,04,35.10
2021,06,27,14,05,35.00
2021,06,27,14,06,34.90
2021,06,27,14,07,35.00
2021,06,27,14,08,35.00
2021,06,27,14,09,34.90
2021,06,27,14,10,34.90
2021,06,27,14,11,34.90
2021,06,27,14,12,35.00
2021,06,27,14,13,35.00
2021,06,27,14,14,35.00
2021,06,27,14,15,35.00
2021,06,27,14,16,35.00
2021,06,27,14,17,35.00
2021,06,27,14,18,35.10
2021,06,27,14,19,35.10
2021,06,27,14,20,35.10
2021,06,27,14,21,35.10
2021,06,27,14,22,35.10
2021,06,27,14,23,35.10
2021,06,27,14,24,35.10
2021,06,27,14,25,35.20
2021,06,27,14,26,35.20
2021,06,27,14,27,35.20
2021,06,27,14,28,35.20
2021,06,27,14,29,35.10
2021,06,27,14,30,35.20
2021,06,27,14,31,35.30
2021,06,27,14,32,35.30
2021,06,27,14,33,35.30
2021,06,27,14,34,35.30
2021,06,27,14,35,35.30
2021,06,27,14,36,35.20
2021,06,27,14,37,35.20
2021,06,27,14,38,35.20
2021,06,27,14,39,35.30
2021,06,27,14,40,35.30
2021,06,27,14,41,35.30
2021,06,27,14,42,35.30
2021,06,27,14,43,35.30
2021,06,27,14,44,35.40
2021,06,27,14,45,35.40
2021,06,27,14,46,35.50
2021,06,27,14,47,35.50
2021,06,27,14,48,35.50
2021,06,27,14,49,35.60
2021,06,27,14,50,35.60
2021,06,27,14,51,35.60
2021,06,27,14,52,35.60
2021,06,27,14,53,35.60
2021,06,27,14,54,35.60
2021,06,27,14,55,35.60
2021,06,27,14,56,35.60
2021,06,27,14,57,35.60
2021,06,27,14,58,35.70
2021,06,27,14,59,35.70
2021,06,27,15,00,35.80
2021,06,27,15,01,35.70
2021,06,27,15,02,35.70
2021,06,27,15,03,35.70
2021,06,27,15,04,35.70
2021,06,27,15,05,35.70
2021,06,27,15,06,35.70
2021,06,27,15,07,35.70
2021,06,27,15,08,35.60
2021,06,27,15,09,35.60
2021,06,27,15,10,35.70
2021,06,27,15,11,35.60
2021,06,27,15,12,35.60
2021,06,27,15,13,35.60
2021,06,27,15,14,35.60
2021,06,27,15,15,35.60
2021,06,27,15,16,35.70
2021,06,27,15,17,35.70
2021,06,27,15,18,35.70
2021,06,27,15,19,35.70
2021,06,27,15,20,35.70
2021,06,27,15,21,35.70
2021,06,27,15,22,35.80
2021,06,27,15,23,35.90
2021,06,27,15,24,36.00
2021,06,27,15,25,36.10
2021,06,27,15,26,36.10
2021,06,27,15,27,36.10
2021,06,27,15,28,36.20
2021,06,27,15,29,36.20
2021,06,27,15,30,36.20
2021,06,27,15,31,36.20
2021,06,27,15,32,36.30
2021,06,27,15,33,36.20
2021,06,27,15,34,36.30
2021,06,27,15,35,36.30
2021,06,27,15,36,36.30
2021,06,27,15,37,36.30
2021,06,27,15,38,36.30
2021,06,27,15,39,36.30
2021,06,27,15,40,36.30
2021,06,27,15,41,36.40
2021,06,27,15,42,36.40
2021,06,27,15,43,36.40
2021,06,27,15,44,36.40
2021,06,27,15,45,36.40
2021,06,27,15,46,36.40
2021,06,27,15,47,36.40
2021,06,27,15,48,36.50
2021,06,27,15,49,36.50
2021,06,27,15,50,36.60
2021,06,27,15,51,36.60
2021,06,27,15,52,36.70
2021,06,27,15,53,36.70
2021,06,27,15,54,36.70
2021,06,27,15,55,36.70
2021,06,27,15,56,36.70
2021,06,27,15,57,36.70
2021,06,27,15,58,36.80
2021,06,27,15,59,36.80
2021,06,27,16,00,36.80
2021,06,27,16,01,36.80
2021,06,27,16,02,36.90
2021,06,27,16,03,36.80
2021,06,27,16,04,36.90
2021,06,27,16,05,36.90
2021,06,27,16,06,36.90
2021,06,27,16,07,37.00
2021,06,27,16,08,37.00
2021,06,27,16,09,37.00
2021,06,27,16,10,36.90
2021,06,27,16,11,37.00
2021,06,27,16,12,37.00
2021,06,27,16,13,36.90
2021,06,27,16,14,36.80
2021,06,27,16,15,36.80
2021,06,27,16,16,36.70
2021,06,27,16,17,36.70
2021,06,27,16,18,36.80
2021,06,27,16,19,36.80
2021,06,27,16,20,36.90
2021,06,27,16,21,37.00
2021,06,27,16,22,37.00
2021,06,27,16,23,37.10
2021,06,27,16,24,37.20
2021,06,27,16,25,37.20
2021,06,27,16,26,37.20
2021,06,27,16,27,37.10
2021,06,27,16,28,37.10
2021,06,27,16,29,37.10
2021,06,27,16,30,37.10
2021,06,27,16,31,37.10
2021,06,27,16,32,37.10
2021,06,27,16,33,37.20
2021,06,27,16,34,37.20
2021,06,27,16,35,37.20
2021,06,27,16,36,37.20
2021,06,27,16,37,37.10
2021,06,27,16,38,37.20
2021,06,27,16,39,37.10
2021,06,27,16,40,37.10
2021,06,27,16,41,37.10
2021,06,27,16,42,37.10
2021,06,27,16,43,37.10
2021,06,27,16,44,37.00
2021,06,27,16,45,37.00
2021,06,27,16,46,37.00
2021,06,27,16,47,37.00
2021,06,27,16,48,37.10
2021,06,27,16,49,37.10
2021,06,27,16,50,37.10
2021,06,27,16,51,37.10
2021,06,27,16,52,37.10
2021,06,27,16,53,37.10
2021,06,27,16,54,37.00
2021,06,27,16,55,37.00
2021,06,27,16,56,37.00
2021,06,27,16,57,37.00
2021,06,27,16,58,37.10
2021,06,27,16,59,37.20
2021,06,27,17,00,37.30
2021,06,27,17,01,37.20
2021,06,27,17,02,37.30
2021,06,27,17,03,37.30
2021,06,27,17,04,37.30
2021,06,27,17,05,37.30
2021,06,27,17,06,37.30
2021,06,27,17,07,37.20
2021,06,27,17,08,37.20
2021,06,27,17,09,37.20
2021,06,27,17,10,37.30
2021,06,27,17,11,37.30
2021,06,27,17,12,37.30
2021,06,27,17,13,37.30
2021,06,27,17,14,37.30
2021,06,27,17,15,37.30
2021,06,27,17,16,37.30
2021,06,27,17,17,37.30
2021,06,27,17,18,37.30
2021,06,27,17,19,37.40